Year,Month,Day,Hour,Minute,Value (Times are PST for temperature in C)
2019,04,26,00,00,7.20
2019,04,26,00,01,7.20
2019,04,26,00,02,7.20
2019,04,26,00,03,7.20
2019,04,26,00,04,7.20
2019,04,26,00,05,7.20
2019,04,26,00,06,7.20
2019,04,26,00,07,7.10
2019,04,26,00,08,7.10
2019,04,26,00,09,7.10
2019,04,26,00,10,7.10
2019,04,26,00,11,7.10
2019,04,26,00,12,7.10
2019,04,26,00,13,7.10
2019,04,26,00,14,7.10
2019,04,26,00,15,7.00
2019,04,26,00,16,7.00
2019,04,26,00,17,7.00
2019,04,26,00,18,6.90
2019,04,26,00,19,6.90
2019,04,26,00,20,6.90
2019,04,26,00,21,6.90
2019,04,26,00,22,6.90
2019,04,26,00,23,6.90
2019,04,26,00,24,6.90
2019,04,26,00,25,6.90
2019,04,26,00,26,6.90
2019,04,26,00,27,6.90
2019,04,26,00,28,6.80
2019,04,26,00,29,6.80
2019,04,26,00,30,6.80
2019,04,26,00,31,6.80
2019,04,26,00,32,6.80
2019,04,26,00,33,6.80
2019,04,26,00,34,6.80
2019,04,26,00,35,6.80
2019,04,26,00,36,6.80
2019,04,26,00,37,6.80
2019,04,26,00,38,6.80
2019,04,26,00,39,6.80
2019,04,26,00,40,6.80
2019,04,26,00,41,6.80
2019,04,26,00,42,6.80
2019,04,26,00,43,6.70
2019,04,26,00,44,6.70
2019,04,26,00,45,6.70
2019,04,26,00,46,6.70
2019,04,26,00,47,6.70
2019,04,26,00,48,6.70
2019,04,26,00,49,6.70
2019,04,26,00,50,6.70
2019,04,26,00,51,6.70
2019,04,26,00,52,6.60
2019,04,26,00,53,6.60
2019,04,26,00,54,6.60
2019,04,26,00,55,6.50
2019,04,26,00,56,6.50
2019,04,26,00,57,6.50
2019,04,26,00,58,6.40
2019,04,26,00,59,6.40
2019,04,26,01,00,6.40
2019,04,26,01,01,6.40
2019,04,26,01,02,6.30
2019,04,26,01,03,6.30
2019,04,26,01,04,6.30
2019,04,26,01,05,6.30
2019,04,26,01,06,6.30
2019,04,26,01,07,6.30
2019,04,26,01,08,6.30
2019,04,26,01,09,6.30
2019,04,26,01,10,6.30
2019,04,26,01,11,6.30
2019,04,26,01,12,6.30
2019,04,26,01,13,6.30
2019,04,26,01,14,6.30
2019,04,26,01,15,6.30
2019,04,26,01,16,6.30
2019,04,26,01,17,6.30
2019,04,26,01,18,6.30
2019,04,26,01,19,6.30
2019,04,26,01,20,6.30
2019,04,26,01,21,6.30
2019,04,26,01,22,6.30
2019,04,26,01,23,6.30
2019,04,26,01,24,6.30
2019,04,26,01,25,6.30
2019,04,26,01,26,6.30
2019,04,26,01,27,6.30
2019,04,26,01,28,6.30
2019,04,26,01,29,6.20
2019,04,26,01,30,6.20
2019,04,26,01,31,6.20
2019,04,26,01,32,6.20
2019,04,26,01,33,6.10
2019,04,26,01,34,6.10
2019,04,26,01,35,6.10
2019,04,26,01,36,6.10
2019,04,26,01,37,6.10
2019,04,26,01,38,6.10
2019,04,26,01,39,6.10
2019,04,26,01,40,6.10
2019,04,26,01,41,6.10
2019,04,26,01,42,6.10
2019,04,26,01,43,6.10
2019,04,26,01,44,6.00
2019,04,26,01,45,6.00
2019,04,26,01,46,6.00
2019,04,26,01,47,6.00
2019,04,26,01,48,6.00
2019,04,26,01,49,6.00
2019,04,26,01,50,5.90
2019,04,26,01,51,5.90
2019,04,26,01,52,5.90
2019,04,26,01,53,5.90
2019,04,26,01,54,5.90
2019,04,26,01,55,5.90
2019,04,26,01,56,5.80
2019,04,26,01,57,5.80
2019,04,26,01,58,5.80
2019,04,26,01,59,5.80
2019,04,26,02,00,5.80
2019,04,26,02,01,5.70
2019,04,26,02,02,5.70
2019,04,26,02,03,5.70
2019,04,26,02,04,5.70
2019,04,26,02,05,5.60
2019,04,26,02,06,5.60
2019,04,26,02,07,5.60
2019,04,26,02,08,5.70
2019,04,26,02,09,5.70
2019,04,26,02,10,5.70
2019,04,26,02,11,5.70
2019,04,26,02,12,5.70
2019,04,26,02,13,5.70
2019,04,26,02,14,5.70
2019,04,26,02,15,5.70
2019,04,26,02,16,5.70
2019,04,26,02,17,5.70
2019,04,26,02,18,5.60
2019,04,26,02,19,5.60
2019,04,26,02,20,5.60
2019,04,26,02,21,5.60
2019,04,26,02,22,5.60
2019,04,26,02,23,5.50
2019,04,26,02,24,5.50
2019,04,26,02,25,5.40
2019,04,26,02,26,5.40
2019,04,26,02,27,5.30
2019,04,26,02,28,5.30
2019,04,26,02,29,5.30
2019,04,26,02,30,5.30
2019,04,26,02,31,5.30
2019,04,26,02,32,5.20
2019,04,26,02,33,5.20
2019,04,26,02,34,5.20
2019,04,26,02,35,5.20
2019,04,26,02,36,5.20
2019,04,26,02,37,5.20
2019,04,26,02,38,5.20
2019,04,26,02,39,5.20
2019,04,26,02,40,5.20
2019,04,26,02,41,5.20
2019,04,26,02,42,5.20
2019,04,26,02,43,5.20
2019,04,26,02,44,5.20
2019,04,26,02,45,5.20
2019,04,26,02,46,5.10
2019,04,26,02,47,5.10
2019,04,26,02,48,5.10
2019,04,26,02,49,5.10
2019,04,26,02,50,5.10
2019,04,26,02,51,5.10
2019,04,26,02,52,5.10
2019,04,26,02,53,5.10
2019,04,26,02,54,5.00
2019,04,26,02,55,5.00
2019,04,26,02,56,5.00
2019,04,26,02,57,4.90
2019,04,26,02,58,4.90
2019,04,26,02,59,4.90
2019,04,26,03,00,4.90
2019,04,26,03,01,4.90
2019,04,26,03,02,4.90
2019,04,26,03,03,4.80
2019,04,26,03,04,4.80
2019,04,26,03,05,4.80
2019,04,26,03,06,4.80
2019,04,26,03,07,4.90
2019,04,26,03,08,4.90
2019,04,26,03,09,4.90
2019,04,26,03,10,4.90
2019,04,26,03,11,4.90
2019,04,26,03,12,4.90
2019,04,26,03,13,4.90
2019,04,26,03,14,4.90
2019,04,26,03,15,4.90
2019,04,26,03,16,4.80
2019,04,26,03,17,4.80
2019,04,26,03,18,4.80
2019,04,26,03,19,4.80
2019,04,26,03,20,4.80
2019,04,26,03,21,4.80
2019,04,26,03,22,4.80
2019,04,26,03,23,4.80
2019,04,26,03,24,4.80
2019,04,26,03,25,4.80
2019,04,26,03,26,4.80
2019,04,26,03,27,4.80
2019,04,26,03,28,4.80
2019,04,26,03,29,4.80
2019,04,26,03,30,4.80
2019,04,26,03,31,4.80
2019,04,26,03,32,4.80
2019,04,26,03,33,4.80
2019,04,26,03,34,4.80
2019,04,26,03,35,4.80
2019,04,26,03,36,4.80
2019,04,26,03,37,4.80
2019,04,26,03,38,4.80
2019,04,26,03,39,4.80
2019,04,26,03,40,4.80
2019,04,26,03,41,4.70
2019,04,26,03,42,4.70
2019,04,26,03,43,4.70
2019,04,26,03,44,4.60
2019,04,26,03,45,4.60
2019,04,26,03,46,4.60
2019,04,26,03,47,4.60
2019,04,26,03,48,4.50
2019,04,26,03,49,4.50
2019,04,26,03,50,4.40
2019,04,26,03,51,4.40
2019,04,26,03,52,4.40
2019,04,26,03,53,4.40
2019,04,26,03,54,4.40
2019,04,26,03,55,4.30
2019,04,26,03,56,4.30
2019,04,26,03,57,4.30
2019,04,26,03,58,4.30
2019,04,26,03,59,4.30
2019,04,26,04,00,4.30
2019,04,26,04,01,4.40
2019,04,26,04,02,4.40
2019,04,26,04,03,4.40
2019,04,26,04,04,4.40
2019,04,26,04,05,4.40
2019,04,26,04,06,4.40
2019,04,26,04,07,4.40
2019,04,26,04,08,4.40
2019,04,26,04,09,4.40
2019,04,26,04,10,4.40
2019,04,26,04,11,4.40
2019,04,26,04,12,4.40
2019,04,26,04,13,4.40
2019,04,26,04,14,4.40
2019,04,26,04,15,4.40
2019,04,26,04,16,4.30
2019,04,26,04,17,4.30
2019,04,26,04,18,4.30
2019,04,26,04,19,4.30
2019,04,26,04,20,4.30
2019,04,26,04,21,4.30
2019,04,26,04,22,4.30
2019,04,26,04,23,4.30
2019,04,26,04,24,4.30
2019,04,26,04,25,4.30
2019,04,26,04,26,4.30
2019,04,26,04,27,4.30
2019,04,26,04,28,4.30
2019,04,26,04,29,4.30
2019,04,26,04,30,4.30
2019,04,26,04,31,4.30
2019,04,26,04,32,4.30
2019,04,26,04,33,4.30
2019,04,26,04,34,4.30
2019,04,26,04,35,4.30
2019,04,26,04,36,4.20
2019,04,26,04,37,4.20
2019,04,26,04,38,4.20
2019,04,26,04,39,4.20
2019,04,26,04,40,4.30
2019,04,26,04,41,4.30
2019,04,26,04,42,4.30
2019,04,26,04,43,4.30
2019,04,26,04,44,4.30
2019,04,26,04,45,4.30
2019,04,26,04,46,4.30
2019,04,26,04,47,4.30
2019,04,26,04,48,4.30
2019,04,26,04,49,4.30
2019,04,26,04,50,4.30
2019,04,26,04,51,4.30
2019,04,26,04,52,4.30
2019,04,26,04,53,4.30
2019,04,26,04,54,4.40
2019,04,26,04,55,4.40
2019,04,26,04,56,4.40
2019,04,26,04,57,4.30
2019,04,26,04,58,4.30
2019,04,26,04,59,4.30
2019,04,26,05,00,4.40
2019,04,26,05,01,4.40
2019,04,26,05,02,4.40
2019,04,26,05,03,4.40
2019,04,26,05,04,4.40
2019,04,26,05,05,4.40
2019,04,26,05,06,4.40
2019,04,26,05,07,4.40
2019,04,26,05,08,4.40
2019,04,26,05,09,4.40
2019,04,26,05,10,4.40
2019,04,26,05,11,4.40
2019,04,26,05,12,4.40
2019,04,26,05,13,4.40
2019,04,26,05,14,4.40
2019,04,26,05,15,4.40
2019,04,26,05,16,4.40
2019,04,26,05,17,4.40
2019,04,26,05,18,4.40
2019,04,26,05,19,4.40
2019,04,26,05,20,4.50
2019,04,26,05,21,4.50
2019,04,26,05,22,4.50
2019,04,26,05,23,4.50
2019,04,26,05,24,4.50
2019,04,26,05,25,4.50
2019,04,26,05,26,4.60
2019,04,26,05,27,4.60
2019,04,26,05,28,4.60
2019,04,26,05,29,4.60
2019,04,26,05,30,4.60
2019,04,26,05,31,4.60
2019,04,26,05,32,4.70
2019,04,26,05,33,4.70
2019,04,26,05,34,4.70
2019,04,26,05,35,4.70
2019,04,26,05,36,4.70
2019,04,26,05,37,4.70
2019,04,26,05,38,4.70
2019,04,26,05,39,4.70
2019,04,26,05,40,4.70
2019,04,26,05,41,4.70
2019,04,26,05,42,4.70
2019,04,26,05,43,4.70
2019,04,26,05,44,4.70
2019,04,26,05,45,4.70
2019,04,26,05,46,4.70
2019,04,26,05,47,4.70
2019,04,26,05,48,4.70
2019,04,26,05,49,4.70
2019,04,26,05,50,4.70
2019,04,26,05,51,4.70
2019,04,26,05,52,4.70
2019,04,26,05,53,4.70
2019,04,26,05,54,4.70
2019,04,26,05,55,4.70
2019,04,26,05,56,4.70
2019,04,26,05,57,4.80
2019,04,26,05,58,4.80
2019,04,26,05,59,4.80
2019,04,26,06,00,4.80
2019,04,26,06,01,4.80
2019,04,26,06,02,4.80
2019,04,26,06,03,4.80
2019,04,26,06,04,4.80
2019,04,26,06,05,4.70
2019,04,26,06,06,4.70
2019,04,26,06,07,4.70
2019,04,26,06,08,4.70
2019,04,26,06,09,4.70
2019,04,26,06,10,4.70
2019,04,26,06,11,4.70
2019,04,26,06,12,4.70
2019,04,26,06,13,4.70
2019,04,26,06,14,4.80
2019,04,26,06,15,4.80
2019,04,26,06,16,4.80
2019,04,26,06,17,4.80
2019,04,26,06,18,4.80
2019,04,26,06,19,4.80
2019,04,26,06,20,4.80
2019,04,26,06,21,4.80
2019,04,26,06,22,4.80
2019,04,26,06,23,4.80
2019,04,26,06,24,4.80
2019,04,26,06,25,4.80
2019,04,26,06,26,4.80
2019,04,26,06,27,4.80
2019,04,26,06,28,4.80
2019,04,26,06,29,4.90
2019,04,26,06,30,4.90
2019,04,26,06,31,4.90
2019,04,26,06,32,4.90
2019,04,26,06,33,4.90
2019,04,26,06,34,4.90
2019,04,26,06,35,4.90
2019,04,26,06,36,4.90
2019,04,26,06,37,4.90
2019,04,26,06,38,4.90
2019,04,26,06,39,5.00
2019,04,26,06,40,5.00
2019,04,26,06,41,5.00
2019,04,26,06,42,5.00
2019,04,26,06,43,5.00
2019,04,26,06,44,5.00
2019,04,26,06,45,4.90
2019,04,26,06,46,4.90
2019,04,26,06,47,4.90
2019,04,26,06,48,4.90
2019,04,26,06,49,4.90
2019,04,26,06,50,4.90
2019,04,26,06,51,4.90
2019,04,26,06,52,4.90
2019,04,26,06,53,4.90
2019,04,26,06,54,4.90
2019,04,26,06,55,4.90
2019,04,26,06,56,4.90
2019,04,26,06,57,5.00
2019,04,26,06,58,5.00
2019,04,26,06,59,5.00
2019,04,26,07,00,5.00
2019,04,26,07,01,5.00
2019,04,26,07,02,5.00
2019,04,26,07,03,5.10
2019,04,26,07,04,5.10
2019,04,26,07,05,5.10
2019,04,26,07,06,5.00
2019,04,26,07,07,5.00
2019,04,26,07,08,5.00
2019,04,26,07,09,5.00
2019,04,26,07,10,5.00
2019,04,26,07,11,5.00
2019,04,26,07,12,5.00
2019,04,26,07,13,5.00
2019,04,26,07,14,5.00
2019,04,26,07,15,5.00
2019,04,26,07,16,5.00
2019,04,26,07,17,5.00
2019,04,26,07,18,5.00
2019,04,26,07,19,5.00
2019,04,26,07,20,5.00
2019,04,26,07,21,5.10
2019,04,26,07,22,5.10
2019,04,26,07,23,5.10
2019,04,26,07,24,5.10
2019,04,26,07,25,5.10
2019,04,26,07,26,5.10
2019,04,26,07,27,5.10
2019,04,26,07,28,5.10
2019,04,26,07,29,5.20
2019,04,26,07,30,5.20
2019,04,26,07,31,5.20
2019,04,26,07,32,5.20
2019,04,26,07,33,5.30
2019,04,26,07,34,5.30
2019,04,26,07,35,5.30
2019,04,26,07,36,5.30
2019,04,26,07,37,5.30
2019,04,26,07,38,5.40
2019,04,26,07,39,5.40
2019,04,26,07,40,5.40
2019,04,26,07,41,5.40
2019,04,26,07,42,5.40
2019,04,26,07,43,5.40
2019,04,26,07,44,5.40
2019,04,26,07,45,5.40
2019,04,26,07,46,5.50
2019,04,26,07,47,5.50
2019,04,26,07,48,5.50
2019,04,26,07,49,5.60
2019,04,26,07,50,5.60
2019,04,26,07,51,5.70
2019,04,26,07,52,5.70
2019,04,26,07,53,5.70
2019,04,26,07,54,5.70
2019,04,26,07,55,5.70
2019,04,26,07,56,5.70
2019,04,26,07,57,5.80
2019,04,26,07,58,5.80
2019,04,26,07,59,5.90
2019,04,26,08,00,5.90
2019,04,26,08,01,5.90
2019,04,26,08,02,5.90
2019,04,26,08,03,6.00
2019,04,26,08,04,6.00
2019,04,26,08,05,6.00
2019,04,26,08,06,6.00
2019,04,26,08,07,5.90
2019,04,26,08,08,5.90
2019,04,26,08,09,6.00
2019,04,26,08,10,6.00
2019,04,26,08,11,6.00
2019,04,26,08,12,6.10
2019,04,26,08,13,6.10
2019,04,26,08,14,6.20
2019,04,26,08,15,6.20
2019,04,26,08,16,6.20
2019,04,26,08,17,6.30
2019,04,26,08,18,6.30
2019,04,26,08,19,6.30
2019,04,26,08,20,6.30
2019,04,26,08,21,6.30
2019,04,26,08,22,6.30
2019,04,26,08,23,6.30
2019,04,26,08,24,6.40
2019,04,26,08,25,6.40
2019,04,26,08,26,6.40
2019,04,26,08,27,6.50
2019,04,26,08,28,6.50
2019,04,26,08,29,6.50
2019,04,26,08,30,6.50
2019,04,26,08,31,6.60
2019,04,26,08,32,6.60
2019,04,26,08,33,6.60
2019,04,26,08,34,6.60
2019,04,26,08,35,6.60
2019,04,26,08,36,6.70
2019,04,26,08,37,6.70
2019,04,26,08,38,6.70
2019,04,26,08,39,6.70
2019,04,26,08,40,6.70
2019,04,26,08,41,6.80
2019,04,26,08,42,6.90
2019,04,26,08,43,6.90
2019,04,26,08,44,7.00
2019,04,26,08,45,7.10
2019,04,26,08,46,7.20
2019,04,26,08,47,7.20
2019,04,26,08,48,7.30
2019,04,26,08,49,7.30
2019,04,26,08,50,7.30
2019,04,26,08,51,7.30
2019,04,26,08,52,7.30
2019,04,26,08,53,7.30
2019,04,26,08,54,7.30
2019,04,26,08,55,7.40
2019,04,26,08,56,7.50
2019,04,26,08,57,7.60
2019,04,26,08,58,7.70
2019,04,26,08,59,7.70
2019,04,26,09,00,7.80
2019,04,26,09,01,7.80
2019,04,26,09,02,7.80
2019,04,26,09,03,7.80
2019,04,26,09,04,7.90
2019,04,26,09,05,7.90
2019,04,26,09,06,7.90
2019,04,26,09,07,7.90
2019,04,26,09,08,7.90
2019,04,26,09,09,8.00
2019,04,26,09,10,8.00
2019,04,26,09,11,8.00
2019,04,26,09,12,8.10
2019,04,26,09,13,8.10
2019,04,26,09,14,8.10
2019,04,26,09,15,8.20
2019,04,26,09,16,8.20
2019,04,26,09,17,8.30
2019,04,26,09,18,8.30
2019,04,26,09,19,8.30
2019,04,26,09,20,8.30
2019,04,26,09,21,8.40
2019,04,26,09,22,8.40
2019,04,26,09,23,8.50
2019,04,26,09,24,8.50
2019,04,26,09,25,8.60
2019,04,26,09,26,8.70
2019,04,26,09,27,8.80
2019,04,26,09,28,8.80
2019,04,26,09,29,8.90
2019,04,26,09,30,8.90
2019,04,26,09,31,9.00
2019,04,26,09,32,9.10
2019,04,26,09,33,9.20
2019,04,26,09,34,9.30
2019,04,26,09,35,9.40
2019,04,26,09,36,9.50
2019,04,26,09,37,9.60
2019,04,26,09,38,9.60
2019,04,26,09,39,9.70
2019,04,26,09,40,9.80
2019,04,26,09,41,9.80
2019,04,26,09,42,9.80
2019,04,26,09,43,9.80
2019,04,26,09,44,9.80
2019,04,26,09,45,10.10
2019,04,26,09,46,10.10
2019,04,26,09,47,10.10
2019,04,26,09,48,10.10
2019,04,26,09,49,10.20
2019,04,26,09,50,10.20
2019,04,26,09,51,10.20
2019,04,26,09,52,10.20
2019,04,26,09,53,10.20
2019,04,26,09,54,10.20
2019,04,26,09,55,10.30
2019,04,26,09,56,10.30
2019,04,26,09,57,10.30
2019,04,26,09,58,10.40
2019,04,26,09,59,10.40
2019,04,26,10,00,10.40
2019,04,26,10,01,10.40
2019,04,26,10,02,10.40
2019,04,26,10,03,10.40
2019,04,26,10,04,10.40
2019,04,26,10,05,10.50
2019,04,26,10,06,10.50
2019,04,26,10,07,10.50
2019,04,26,10,08,10.60
2019,04,26,10,09,10.60
2019,04,26,10,10,10.60
2019,04,26,10,11,10.70
2019,04,26,10,12,10.70
2019,04,26,10,13,10.70
2019,04,26,10,14,10.80
2019,04,26,10,15,10.80
2019,04,26,10,16,10.90
2019,04,26,10,17,10.90
2019,04,26,10,18,10.90
2019,04,26,10,19,11.00
2019,04,26,10,20,11.10
2019,04,26,10,21,11.10
2019,04,26,10,22,11.10
2019,04,26,10,23,11.10
2019,04,26,10,24,11.00
2019,04,26,10,25,11.00
2019,04,26,10,26,11.00
2019,04,26,10,27,11.00
2019,04,26,10,28,11.00
2019,04,26,10,29,11.00
2019,04,26,10,30,10.90
2019,04,26,10,31,10.90
2019,04,26,10,32,10.90
2019,04,26,10,33,10.90
2019,04,26,10,34,10.90
2019,04,26,10,35,10.90
2019,04,26,10,36,10.90
2019,04,26,10,37,10.90
2019,04,26,10,38,10.80
2019,04,26,10,39,10.90
2019,04,26,10,40,10.90
2019,04,26,10,41,11.00
2019,04,26,10,42,11.00
2019,04,26,10,43,11.10
2019,04,26,10,44,11.20
2019,04,26,10,45,11.30
2019,04,26,10,46,11.30
2019,04,26,10,47,11.40
2019,04,26,10,48,11.40
2019,04,26,10,49,11.40
2019,04,26,10,50,11.50
2019,04,26,10,51,11.50
2019,04,26,10,52,11.50
2019,04,26,10,53,11.50
2019,04,26,10,54,11.50
2019,04,26,10,55,11.40
2019,04,26,10,56,11.30
2019,04,26,10,57,11.30
2019,04,26,10,58,11.30
2019,04,26,10,59,11.20
2019,04,26,11,00,11.20
2019,04,26,11,01,11.20
2019,04,26,11,02,11.20
2019,04,26,11,03,11.20
2019,04,26,11,04,11.20
2019,04,26,11,05,11.20
2019,04,26,11,06,11.20
2019,04,26,11,07,11.20
2019,04,26,11,08,11.30
2019,04,26,11,09,11.30
2019,04,26,11,10,11.30
2019,04,26,11,11,11.30
2019,04,26,11,12,11.30
2019,04,26,11,13,11.40
2019,04,26,11,14,11.30
2019,04,26,11,15,11.30
2019,04,26,11,16,11.30
2019,04,26,11,17,11.30
2019,04,26,11,18,11.20
2019,04,26,11,19,11.20
2019,04,26,11,20,11.20
2019,04,26,11,21,11.20
2019,04,26,11,22,11.10
2019,04,26,11,23,11.10
2019,04,26,11,24,11.10
2019,04,26,11,25,11.10
2019,04,26,11,26,11.10
2019,04,26,11,27,11.10
2019,04,26,11,28,11.10
2019,04,26,11,29,11.10
2019,04,26,11,30,11.20
2019,04,26,11,31,11.20
2019,04,26,11,32,11.30
2019,04,26,11,33,11.30
2019,04,26,11,34,11.30
2019,04,26,11,35,11.30
2019,04,26,11,36,11.30
2019,04,26,11,37,11.30
2019,04,26,11,38,11.30
2019,04,26,11,39,11.30
2019,04,26,11,40,11.20
2019,04,26,11,41,11.20
2019,04,26,11,42,11.10
2019,04,26,11,43,11.10
2019,04,26,11,44,11.10
2019,04,26,11,45,11.10
2019,04,26,11,46,11.10
2019,04,26,11,47,11.20
2019,04,26,11,48,11.20
2019,04,26,11,49,11.30
2019,04,26,11,50,11.20
2019,04,26,11,51,11.20
2019,04,26,11,52,11.20
2019,04,26,11,53,11.20
2019,04,26,11,54,11.20
2019,04,26,11,55,11.20
2019,04,26,11,56,11.20
2019,04,26,11,57,11.20
2019,04,26,11,58,11.10
2019,04,26,11,59,11.10
2019,04,26,12,00,11.10
2019,04,26,12,01,11.20
2019,04,26,12,02,11.10
2019,04,26,12,03,11.10
2019,04,26,12,04,11.20
2019,04,26,12,05,11.20
2019,04,26,12,06,11.20
2019,04,26,12,07,11.20
2019,04,26,12,08,11.20
2019,04,26,12,09,11.30
2019,04,26,12,10,11.30
2019,04,26,12,11,11.30
2019,04,26,12,12,11.30
2019,04,26,12,13,11.40
2019,04,26,12,14,11.40
2019,04,26,12,15,11.40
2019,04,26,12,16,11.40
2019,04,26,12,17,11.40
2019,04,26,12,18,11.40
2019,04,26,12,19,11.40
2019,04,26,12,20,11.50
2019,04,26,12,21,11.50
2019,04,26,12,22,11.50
2019,04,26,12,23,11.60
2019,04,26,12,24,11.60
2019,04,26,12,25,11.60
2019,04,26,12,26,11.70
2019,04,26,12,27,11.70
2019,04,26,12,28,11.70
2019,04,26,12,29,11.70
2019,04,26,12,30,11.70
2019,04,26,12,31,11.70
2019,04,26,12,32,11.70
2019,04,26,12,33,11.80
2019,04,26,12,34,11.80
2019,04,26,12,35,11.80
2019,04,26,12,36,11.90
2019,04,26,12,37,11.90
2019,04,26,12,38,12.00
2019,04,26,12,39,12.00
2019,04,26,12,40,12.10
2019,04,26,12,41,12.10
2019,04,26,12,42,12.20
2019,04,26,12,43,12.30
2019,04,26,12,44,12.40
2019,04,26,12,45,12.40
2019,04,26,12,46,12.50
2019,04,26,12,47,12.60
2019,04,26,12,48,12.60
2019,04,26,12,49,12.70
2019,04,26,12,50,12.70
2019,04,26,12,51,12.70
2019,04,26,12,52,12.70
2019,04,26,12,53,12.80
2019,04,26,12,54,12.80
2019,04,26,12,55,12.90
2019,04,26,12,56,13.00
2019,04,26,12,57,13.00
2019,04,26,12,58,12.90
2019,04,26,12,59,12.90
2019,04,26,13,00,12.90
2019,04,26,13,01,12.90
2019,04,26,13,02,12.80
2019,04,26,13,03,12.80
2019,04,26,13,04,12.80
2019,04,26,13,05,12.70
2019,04,26,13,06,12.70
2019,04,26,13,07,12.70
2019,04,26,13,08,12.70
2019,04,26,13,09,12.70
2019,04,26,13,10,12.70
2019,04,26,13,11,12.70
2019,04,26,13,12,12.80
2019,04,26,13,13,12.80
2019,04,26,13,14,12.80
2019,04,26,13,15,12.80
2019,04,26,13,16,12.80
2019,04,26,13,17,12.80
2019,04,26,13,18,12.80
2019,04,26,13,19,12.90
2019,04,26,13,20,12.90
2019,04,26,13,21,12.90
2019,04,26,13,22,13.00
2019,04,26,13,23,12.90
2019,04,26,13,24,12.90
2019,04,26,13,25,13.00
2019,04,26,13,26,13.00
2019,04,26,13,27,13.00
2019,04,26,13,28,13.10
2019,04,26,13,29,13.10
2019,04,26,13,30,13.00
2019,04,26,13,31,12.90
2019,04,26,13,32,12.90
2019,04,26,13,33,12.90
2019,04,26,13,34,12.90
2019,04,26,13,35,12.90
2019,04,26,13,36,12.80
2019,04,26,13,37,12.80
2019,04,26,13,38,12.90
2019,04,26,13,39,12.90
2019,04,26,13,40,12.90
2019,04,26,13,41,12.90
2019,04,26,13,42,12.80
2019,04,26,13,43,12.80
2019,04,26,13,44,12.80
2019,04,26,13,45,12.80
2019,04,26,13,46,12.90
2019,04,26,13,47,12.90
2019,04,26,13,48,12.90
2019,04,26,13,49,12.90
2019,04,26,13,50,12.90
2019,04,26,13,51,12.90
2019,04,26,13,52,12.90
2019,04,26,13,53,12.90
2019,04,26,13,54,12.90
2019,04,26,13,55,12.80
2019,04,26,13,56,12.80
2019,04,26,13,57,12.80
2019,04,26,13,58,12.70
2019,04,26,13,59,12.70
2019,04,26,14,00,12.70
2019,04,26,14,01,12.70
2019,04,26,14,02,12.80
2019,04,26,14,03,12.90
2019,04,26,14,04,12.90
2019,04,26,14,05,12.90
2019,04,26,14,06,12.90
2019,04,26,14,07,12.90
2019,04,26,14,08,12.90
2019,04,26,14,09,12.90
2019,04,26,14,10,12.90
2019,04,26,14,11,12.90
2019,04,26,14,12,12.90
2019,04,26,14,13,13.00
2019,04,26,14,14,13.00
2019,04,26,14,15,13.00
2019,04,26,14,16,13.00
2019,04,26,14,17,13.00
2019,04,26,14,18,13.10
2019,04,26,14,19,13.10
2019,04,26,14,20,13.10
2019,04,26,14,21,13.00
2019,04,26,14,22,13.00
2019,04,26,14,23,13.00
2019,04,26,14,24,13.00
2019,04,26,14,25,13.00
2019,04,26,14,26,13.00
2019,04,26,14,27,13.00
2019,04,26,14,28,13.00
2019,04,26,14,29,12.90
2019,04,26,14,30,12.90
2019,04,26,14,31,12.80
2019,04,26,14,32,12.80
2019,04,26,14,33,12.80
2019,04,26,14,34,12.80
2019,04,26,14,35,12.80
2019,04,26,14,36,12.90
2019,04,26,14,37,12.90
2019,04,26,14,38,13.00
2019,04,26,14,39,13.00
2019,04,26,14,40,13.00
2019,04,26,14,41,13.00
2019,04,26,14,42,13.00
2019,04,26,14,43,13.00
2019,04,26,14,44,13.00
2019,04,26,14,45,12.90
2019,04,26,14,46,12.90
2019,04,26,14,47,12.80
2019,04,26,14,48,12.80
2019,04,26,14,49,12.70
2019,04,26,14,50,12.60
2019,04,26,14,51,12.50
2019,04,26,14,52,12.40
2019,04,26,14,53,12.40
2019,04,26,14,54,12.40
2019,04,26,14,55,12.40
2019,04,26,14,56,12.40
2019,04,26,14,57,12.40
2019,04,26,14,58,12.40
2019,04,26,14,59,12.40
2019,04,26,15,00,12.40
2019,04,26,15,01,12.50
2019,04,26,15,02,12.60
2019,04,26,15,03,12.60
2019,04,26,15,04,12.60
2019,04,26,15,05,12.60
2019,04,26,15,06,12.60
2019,04,26,15,07,12.50
2019,04,26,15,08,12.40
2019,04,26,15,09,12.30
2019,04,26,15,10,12.20
2019,04,26,15,11,12.20
2019,04,26,15,12,12.20
2019,04,26,15,13,12.30
2019,04,26,15,14,12.40
2019,04,26,15,15,12.40
2019,04,26,15,16,12.40
2019,04,26,15,17,12.50
2019,04,26,15,18,12.50
2019,04,26,15,19,12.50
2019,04,26,15,20,12.40
2019,04,26,15,21,12.30
2019,04,26,15,22,12.30
2019,04,26,15,23,12.30
2019,04,26,15,24,12.30
2019,04,26,15,25,12.20
2019,04,26,15,26,12.20
2019,04,26,15,27,12.20
2019,04,26,15,28,12.20
2019,04,26,15,29,12.10
2019,04,26,15,30,12.10
2019,04,26,15,31,12.10
2019,04,26,15,32,12.10
2019,04,26,15,33,12.20
2019,04,26,15,34,12.20
2019,04,26,15,35,12.20
2019,04,26,15,36,12.20
2019,04,26,15,37,12.20
2019,04,26,15,38,12.10
2019,04,26,15,39,12.10
2019,04,26,15,40,12.10
2019,04,26,15,41,12.10
2019,04,26,15,42,12.10
2019,04,26,15,43,12.00
2019,04,26,15,44,12.00
2019,04,26,15,45,12.00
2019,04,26,15,46,12.00
2019,04,26,15,47,12.00
2019,04,26,15,48,12.10
2019,04,26,15,49,12.10
2019,04,26,15,50,12.10
2019,04,26,15,51,12.00
2019,04,26,15,52,11.90
2019,04,26,15,53,11.90
2019,04,26,15,54,11.90
2019,04,26,15,55,11.90
2019,04,26,15,56,11.90
2019,04,26,15,57,11.90
2019,04,26,15,58,11.80
2019,04,26,15,59,11.80
2019,04,26,16,00,11.80
2019,04,26,16,01,11.80
2019,04,26,16,02,11.70
2019,04,26,16,03,11.70
2019,04,26,16,04,11.60
2019,04,26,16,05,11.60
2019,04,26,16,06,11.60
2019,04,26,16,07,11.50
2019,04,26,16,08,11.50
2019,04,26,16,09,11.50
2019,04,26,16,10,11.50
2019,04,26,16,11,11.40
2019,04,26,16,12,11.40
2019,04,26,16,13,11.40
2019,04,26,16,14,11.40
2019,04,26,16,15,11.40
2019,04,26,16,16,11.40
2019,04,26,16,17,11.40
2019,04,26,16,18,11.40
2019,04,26,16,19,11.30
2019,04,26,16,20,11.30
2019,04,26,16,21,11.30
2019,04,26,16,22,11.30
2019,04,26,16,23,11.30
2019,04,26,16,24,11.40
2019,04,26,16,25,11.40
2019,04,26,16,26,11.40
2019,04,26,16,27,11.40
2019,04,26,16,28,11.30
2019,04,26,16,29,11.30
2019,04,26,16,30,11.40
2019,04,26,16,31,11.40
2019,04,26,16,32,11.40
2019,04,26,16,33,11.40
2019,04,26,16,34,11.30
2019,04,26,16,35,11.40
2019,04,26,16,36,11.40
2019,04,26,16,37,11.40
2019,04,26,16,38,11.40
2019,04,26,16,39,11.40
2019,04,26,16,40,11.40
2019,04,26,16,41,11.40
2019,04,26,16,42,11.40
2019,04,26,16,43,11.40
2019,04,26,16,44,11.40
2019,04,26,16,45,11.30
2019,04,26,16,46,11.30
2019,04,26,16,47,11.30
2019,04,26,16,48,11.30
2019,04,26,16,49,11.20
2019,04,26,16,50,11.10
2019,04,26,16,51,11.10
2019,04,26,16,52,11.10
2019,04,26,16,53,11.10
2019,04,26,16,54,11.10
2019,04,26,16,55,11.10
2019,04,26,16,56,11.10
2019,04,26,16,57,11.10
2019,04,26,16,58,11.10
2019,04,26,16,59,11.20
2019,04,26,17,00,11.20
2019,04,26,17,01,11.20
2019,04,26,17,02,11.20
2019,04,26,17,03,11.20
2019,04,26,17,04,11.20
2019,04,26,17,05,11.20
2019,04,26,17,06,11.20
2019,04,26,17,07,11.20
2019,04,26,17,08,11.20
2019,04,26,17,09,11.10
2019,04,26,17,10,11.10
2019,04,26,17,11,11.10
2019,04,26,17,12,11.10
2019,04,26,17,13,11.10
2019,04,26,17,14,11.10
2019,04,26,17,15,11.10
2019,04,26,17,16,11.10
2019,04,26,17,17,11.10
2019,04,26,17,18,11.10
2019,04,26,17,19,11.10
2019,04,26,17,20,11.10
2019,04,26,17,21,11.10
2019,04,26,17,22,11.10
2019,04,26,17,23,11.10
2019,04,26,17,24,11.10
2019,04,26,17,25,11.10
2019,04,26,17,26,11.20
2019,04,26,17,27,11.20
2019,04,26,17,28,11.20
2019,04,26,17,29,11.20
2019,04,26,17,30,11.20
2019,04,26,17,31,11.20
2019,04,26,17,32,11.20
2019,04,26,17,33,11.20
2019,04,26,17,34,11.10
2019,04,26,17,35,11.10
2019,04,26,17,36,11.10
2019,04,26,17,37,11.10
2019,04,26,17,38,11.00
2019,04,26,17,39,11.00
2019,04,26,17,40,11.00
2019,04,26,17,41,11.00
2019,04,26,17,42,10.90
2019,04,26,17,43,10.90
2019,04,26,17,44,10.90